Weather History for Newton, KS

Change the Weather History Date:

Friday, April 11, 2014

  Actual Average Record
Temperature  
Mean Temperature 63 °F -  
Max Temperature 80 °F 62 °F 80 °F (2003)
Min Temperature 46 °F 41 °F 23 °F (1997)
Degree Days  
Heating Degree Days 2    
Growing Degree Days 13 (Base 50)    
Moisture  
Dew Point 35 °F    
Average Humidity 38    
Maximum Humidity 68    
Minimum Humidity 21    
Precipitation  
Precipitation 0.00 in - - ()
Sea Level Pressure  
Sea Level Pressure 30.00 in    
Wind  
Wind Speed 8 mph (ESE)    
Max Wind Speed 18 mph    
Max Gust Speed 22 mph    
Visibility 8 miles    
Events      
Averages and records for this station are not official NWS values.
T = Trace of Precipitation, MM = Missing Value Source: NWS Daily Summary

Daily Weather History Graph

Daily Weather History Graph

Search for Another Location

Airport:

Trip Planner

Search our weather history database for the weather conditions in past years. The results will help you decide how hot, cold, wet, or windy it might be!

Date:

Astronomy

Apr. 11, 2014 Rise Set
Actual Time 6:59 AM CDT 8:01 PM CDT
Civil Twilight 6:32 AM CDT 8:28 PM CDT
Nautical Twilight 6:00 AM CDT 9:00 PM CDT
Astronomical Twilight 5:27 AM CDT 9:34 PM CDT
Moon 4:46 PM CDT (4/11) 4:51 AM CDT (4/11)
Length of Visible Light 13h 56m
Length of Day
13h 02m
Waxing Gibbous, 87% of the Moon is Illuminated
Apr 11
Waxing Gibbous
Apr 15
Full
Apr 22
Last Quarter
Apr 29
New
May 6
First Quarter

Hourly Weather History & Observations

Time (CDT) Temp. Windchill Dew Point Humidity Pressure Visibility Wind Dir Wind Speed Gust Speed Precip Events Conditions
12:15 AM 50.0 °F - 26.6 °F 40% 30.01 in 5.0 mi ENE 8.1 mph - N/A   Clear
12:35 AM 50.0 °F - 26.6 °F 40% 30.02 in 5.0 mi NE 8.1 mph - N/A   Clear
12:55 AM 50.0 °F - 26.6 °F 40% 30.03 in 5.0 mi NE 8.1 mph - N/A   Clear
1:15 AM 50.0 °F - 26.6 °F 40% 30.04 in 4.0 mi ENE 5.8 mph - N/A   Clear
1:35 AM 48.2 °F - 26.6 °F 43% 30.05 in 3.0 mi Calm Calm - N/A   Clear
1:55 AM 48.2 °F - 24.8 °F 40% 30.04 in 3.0 mi ENE 3.5 mph - N/A   Clear
2:15 AM 46.4 °F 43.5 °F 26.6 °F 46% 30.05 in 3.0 mi East 5.8 mph - N/A   Clear
2:35 AM 46.4 °F 42.9 °F 26.6 °F 46% 30.04 in 3.0 mi East 6.9 mph - N/A   Clear
2:55 AM 48.2 °F - 26.6 °F 43% 30.05 in 5.0 mi Calm Calm - N/A   Clear
3:15 AM 48.2 °F - 26.6 °F 43% 30.02 in 8.0 mi ESE 11.5 mph - N/A   Partly Cloudy
3:35 AM 50.0 °F - 24.8 °F 37% 30.02 in 10.0 mi East 8.1 mph - N/A   Partly Cloudy
3:55 AM 50.0 °F - 24.8 °F 37% 30.04 in 10.0 mi ENE 4.6 mph - N/A   Clear
4:15 AM 48.2 °F - 24.8 °F 40% 30.03 in 10.0 mi NE 6.9 mph - N/A   Clear
4:35 AM 48.2 °F - 24.8 °F 40% 30.04 in 10.0 mi ENE 8.1 mph - N/A   Clear
4:55 AM 46.4 °F 44.3 °F 24.8 °F 43% 30.04 in 10.0 mi East 4.6 mph - N/A   Clear
5:15 AM 46.4 °F 43.5 °F 24.8 °F 43% 30.05 in 10.0 mi ENE 5.8 mph - N/A   Clear
5:35 AM 46.4 °F 42.9 °F 24.8 °F 43% 30.05 in 10.0 mi East 6.9 mph - N/A   Clear
5:55 AM 46.4 °F 43.5 °F 24.8 °F 43% 30.05 in 10.0 mi NE 5.8 mph - N/A   Clear
6:15 AM 48.2 °F - 24.8 °F 40% 30.05 in 10.0 mi ENE 5.8 mph - N/A   Clear
6:35 AM 48.2 °F - 24.8 °F 40% 30.04 in 10.0 mi East 8.1 mph - N/A   Clear
6:55 AM 48.2 °F - 24.8 °F 40% 30.03 in 10.0 mi East 9.2 mph - N/A   Clear
7:15 AM 48.2 °F - 24.8 °F 40% 30.05 in 10.0 mi East 6.9 mph - N/A   Clear
7:35 AM 46.4 °F 42.9 °F 24.8 °F 43% 30.05 in 10.0 mi East 6.9 mph - N/A   Clear
7:55 AM 48.2 °F - 24.8 °F 40% 30.05 in 10.0 mi SE 10.4 mph - N/A   Clear
8:15 AM 50.0 °F - 26.6 °F 40% 30.05 in 10.0 mi ESE 11.5 mph - N/A   Clear
8:35 AM 51.8 °F - 24.8 °F 35% 30.05 in 10.0 mi ESE 11.5 mph - N/A   Clear
8:55 AM 55.4 °F - 26.6 °F 33% 30.05 in 10.0 mi SE 16.1 mph 20.7 mph N/A   Clear
9:15 AM 57.2 °F - 28.4 °F 33% 30.05 in 10.0 mi ESE 15.0 mph 21.9 mph N/A   Clear
9:35 AM 59.0 °F - 28.4 °F 31% 30.06 in 10.0 mi ESE 18.4 mph 21.9 mph N/A   Clear
9:55 AM 60.8 °F - 30.2 °F 31% 30.06 in 10.0 mi ESE 18.4 mph - N/A   Clear
10:15 AM 62.6 °F - 33.8 °F 34% 30.06 in 10.0 mi SE 16.1 mph 19.6 mph N/A   Clear
10:35 AM 64.4 °F - 35.6 °F 34% 30.07 in 10.0 mi SE 13.8 mph - N/A   Clear
10:55 AM 66.2 °F - 35.6 °F 32% 30.07 in 10.0 mi SE 10.4 mph - N/A   Clear
11:15 AM 66.2 °F - 35.6 °F 32% 30.07 in 10.0 mi ESE 11.5 mph 16.1 mph N/A   Clear
11:35 AM 69.8 °F - 35.6 °F 28% 30.07 in 10.0 mi SE 9.2 mph - N/A   Clear
11:55 AM 69.8 °F - 35.6 °F 28% 30.07 in 10.0 mi ESE 9.2 mph - N/A   Clear
12:15 PM 71.6 °F - 35.6 °F 27% 30.06 in 10.0 mi SSE 5.8 mph - N/A   Clear
12:35 PM 71.6 °F - 35.6 °F 27% 30.06 in 10.0 mi East 5.8 mph - N/A   Clear
12:55 PM 73.4 °F - 37.4 °F 27% 30.05 in 10.0 mi SE 6.9 mph - N/A   Clear
1:15 PM 73.4 °F - 37.4 °F 27% 30.05 in 10.0 mi SSE 6.9 mph - N/A   Clear
1:35 PM 75.2 °F - 37.4 °F 25% 30.04 in 10.0 mi East 9.2 mph - N/A   Clear
1:55 PM 75.2 °F - 37.4 °F 25% 30.03 in 10.0 mi SE 6.9 mph - N/A   Clear
2:15 PM 77.0 °F - 37.4 °F 24% 30.02 in 10.0 mi SE 9.2 mph - N/A   Clear
2:35 PM 78.8 °F - 37.4 °F 23% 30.01 in 10.0 mi SE 10.4 mph 17.3 mph N/A   Clear
2:55 PM 78.8 °F - 37.4 °F 23% 30.00 in 10.0 mi East 6.9 mph - N/A   Clear
3:15 PM 78.8 °F - 37.4 °F 23% 29.99 in 10.0 mi East 8.1 mph - N/A   Clear
3:35 PM 80.6 °F - 39.2 °F 23% 29.97 in 10.0 mi SE 9.2 mph 16.1 mph N/A   Clear
3:55 PM 80.6 °F - 37.4 °F 21% 29.96 in 10.0 mi SSE 12.7 mph 18.4 mph N/A   Clear
4:15 PM 80.6 °F - 39.2 °F 23% 29.95 in 10.0 mi SE 13.8 mph 19.6 mph N/A   Clear
4:35 PM 80.6 °F - 39.2 °F 23% 29.94 in 10.0 mi SE 11.5 mph 18.4 mph N/A   Clear
4:55 PM 80.6 °F - 39.2 °F 23% 29.93 in 10.0 mi SE 11.5 mph - N/A   Clear
5:15 PM 78.8 °F - 41.0 °F 26% 29.93 in 10.0 mi SSE 11.5 mph 20.7 mph N/A   Clear
5:35 PM 78.8 °F - 39.2 °F 24% 29.92 in 10.0 mi SSE 13.8 mph - N/A   Clear
5:55 PM 78.8 °F - 42.8 °F 28% 29.92 in 10.0 mi SSE 11.5 mph - N/A   Clear
6:15 PM 77.0 °F - 42.8 °F 29% 29.91 in 5.0 mi SSE 13.8 mph 19.6 mph N/A   Clear
6:35 PM 75.2 °F - 44.6 °F 34% 29.91 in 3.0 mi South 13.8 mph 17.3 mph N/A   Clear
6:55 PM 73.4 °F - 44.6 °F 36% 29.91 in 3.0 mi SSE 10.4 mph - N/A   Clear
7:15 PM 73.4 °F - 42.8 °F 33% 29.91 in 4.0 mi SE 9.2 mph - N/A   Clear
7:35 PM 71.6 °F - 42.8 °F 35% 29.90 in 3.0 mi SE 9.2 mph - N/A   Clear
7:55 PM 69.8 °F - 42.8 °F 38% 29.91 in 4.0 mi SE 8.1 mph - N/A   Clear
8:15 PM 64.4 °F - 42.8 °F 45% 29.90 in 4.0 mi SE 8.1 mph - N/A   Clear
8:35 PM 62.6 °F - 42.8 °F 48% 29.91 in 5.0 mi SE 9.2 mph - N/A   Clear
8:55 PM 62.6 °F - 42.8 °F 48% 29.92 in 5.0 mi SE 8.1 mph - N/A   Clear
9:15 PM 60.8 °F - 42.8 °F 52% 29.92 in 5.0 mi SE 8.1 mph - N/A   Clear
9:35 PM 60.8 °F - 42.8 °F 52% 29.92 in 5.0 mi SE 8.1 mph - N/A   Clear
9:55 PM 60.8 °F - 44.6 °F 55% 29.92 in 5.0 mi SE 8.1 mph - N/A   Clear
10:15 PM 60.8 °F - 46.4 °F 59% 29.92 in 5.0 mi SSE 9.2 mph - N/A   Clear
10:35 PM 60.8 °F - 46.4 °F 59% 29.92 in 5.0 mi SSE 9.2 mph - N/A   Clear
10:55 PM 62.6 °F - 50.0 °F 63% 29.91 in 7.0 mi South 12.7 mph - N/A   Clear
11:15 PM 64.4 °F - 50.0 °F 59% 29.91 in 9.0 mi South 11.5 mph - N/A   Clear
11:35 PM 62.6 °F - 51.8 °F 68% 29.91 in 10.0 mi South 13.8 mph - N/A   Clear
11:55 PM 64.4 °F - 51.8 °F 64% 29.91 in 10.0 mi South 13.8 mph - N/A   Clear